Probability
0 0 0 0 0 0 0 0 0 0 0 0 0 0 0 0 0 0 0 0 0 0 0 0 0 0 0 0 0 0 0 0 0 0 0 0 0 0 0 0 0 0 0
0 0 0 0 0 0 0 0 0 0 0 0 0 0 0 0 0 0 0 0 0 0 0 0 0 0 0 0 0 0 0 0 0 0 0 0 0 0 0 0 0 0 0
0 0 0 0 0 0 0 0 0 0 0 0 0 0 0 0 0 0 0 0 0 0 0 0 0 0 0 0 0 0 0 0 0 0 0 0 0 0 0 0 0 0 0
0 0 0 0 0 0 0 0 0 0 0 0 0 0 0 0 0 0 0 0 0 0 0 0 0 0 0 0 0 0 0 0 0 0 0 0 0 0 0 0 0 0 0
0 0 0 0 0 0 0 0 0 0 0 0 0 0 0 0 0 0 0 0 0 0 0 0 0 0 0 0 0 0 0 0 0 0 0 0 0 0 0 0 0 0 0
0 0 0 0 0 0 0 0 0 0 0 0 0 0 0 0 0 0 0 0 0 0 0 0 0 0 0 0 0 0 0 0 0 0 0 0 0 0 0 0 0 0 0
0 0 0 0 0 0 0 0 0 0 0 0 0 0 0 0 0 0 0 0 0 0 0 0 0 0 0 0 0 0 0 0 0 0 0 0 0 0 0 0 0 0 0
0 0 0 0 0 0 0 0 0 0 0 0 0 0 0 0 0 0 0 0 0 0 0 0 0 0 0 0 0 0 0 0 0 0 0 0 0 0 0 0 0 0 0
0 0 0 0 0 0 0 0 0 0 0 0 0 0 0 0 0 0 0 0 0 0 0 0 0 0 0 0 0 0 0 0 0 0 0 0 0 0 0 0 0 0 0
0 0 0 0 0 0 0 0 0 0 0 0 0 0 0 0 0 0 0 0 0 0 0 0 0 0 0 0 0 0 0 0 0 0 0 0 0 0 0 0 0 0 0
0 0 0 0 0 0 0 0 0 0 0 0 0 0 0 0 0 0 0 0 0 0 0 0 0 0 0 0 0 0 0 0 0 0 0 0 0 0 0 0 0 0 0
0 0 0 0 0 0 0 0 0 0 0 0 0 0 0 0 0 0 0 0 0 0 0 0 0 0 0 0 0 0 0 0 0 0 0 0 0 0 0 0 0 0 0
0 0 0 0 0 0 0 0 0 0 0 0 0 0 0 0 0 0 0 0 0 0 0 0 0 0 0 0 0 0 0 0 0 0 0 0 0 0 0 0 0 0 0
0 0 0 0 0 0 0 0 0 0 0 0 0 0 0 0 0 0 0 0 0 0 0 0 0 0 0 0 0 0 0 0 0 0 0 0 0 0 0 0 0 0 0
0 0 0 0 0 0 0 0 0 0 0 0 0 0 0 0 0 0 0 0 0 0 0 0 0 0 0 0 0 0 0 0 0 0 0 0 0 0 0 0 0 0 0
0 0 0 0 0 0 0 0 0 0 0 0 0 0 0 0 0 0 0 0 0 0 0 0 0 0 0 0 0 0 0 0 0 0 0 0 0 0 0 0 0 0 0
0 0 0 0 0 0 0 0 0 0 0 0 0 0 0 0 0 0 0 0 0 0 0 0 0 0 0 0 0 0 0 0 0 0 0 0 0 0 0 0 0 0 0
0 0 0 0 0 0 0 0 0 0 0 0 0 0 0 0 0 0 0 0 0 0 0 0 0 0 0 0 0 0 0 0 0 0 0 0 0 0 0 0 0 0 0
0 0 0 0 0 0 0 0 0 0 0 0 0 0 0 0 0 0 0 0 0 0 0 0 0 0 0 0 0 0 0 0 0 0 0 0 0 0 0 0 0 0 0
0 0 0 0 0 0 0 0 0 0 0 0 0 0 0 0 0 0 0 0 0 0 0 0 0 0 0 0 0 0 0 0 0 0 0 0 0 0 0 0 0 0 0
0 0 1 1 1 0 0 0 0 0 0 0 0 0 0 0 0 0 0 0 0 0 0 0 0 0 0 0 0 0 0 0 0 0 0 0 0 0 0 0 0 0 0
1 1 1 2 2 1 0 0 0 0 0 0 0 0 0 0 0 0 0 0 0 0 0 0 0 0 0 0 0 0 0 0 0 0 0 0 0 0 0 0 0 0 0
2 2 2 2 2 2 1 0 0 0 0 0 0 0 0 0 0 0 1 0 0 0 0 0 0 0 0 0 0 0 0 0 0 0 0 0 0 0 0 0 0 0 0
1 2 2 2 2 3 2 1 0 0 0 0 0 0 0 0 0 0 0 0 0 0 0 0 0 0 0 0 0 0 0 0 0 0 0 0 0 0 0 0 0 0 0
0 1 2 2 3 4 4 2 1 0 0 0 0 0 0 0 0 0 0 0 0 0 0 0 0 0 0 0 0 0 0 0 0 0 0 0 0 0 0 0 0 0 0
0 0 1 2 4 5 5 3 1 0 0 0 0 0 0 0 0 0 0 0 0 0 0 0 0 0 0 0 0 0 0 0 0 0 0 0 0 0 0 0 0 0 0
Wind_Speed
10 12 13 13 12 11 11 11 11 10 10 10 10 10 11 11 11 11 12 12 13 13 13 14 14 14 14 13 13 13 13 12 12 13 13 13 13 13 12 11 12 8 13
14 14 12 12 13 12 11 11 10 10 10 10 10 10 11 11 11 11 11 11 12 12 12 12 12 12 12 12 12 11 10 9 8 8 9 11 11 11 12 12 11 7 12
15 14 12 12 12 12 11 10 9 10 10 10 10 10 10 11 11 11 11 10 10 11 11 11 11 11 11 10 10 9 8 6 5 4 2 4 7 10 10 10 10 10 10
14 13 12 12 12 12 11 10 9 9 10 10 10 10 10 10 10 10 9 9 9 9 9 9 9 9 9 9 8 8 6 4 6 7 2 5 5 8 9 9 9 9 9
12 11 13 13 12 12 11 10 9 9 9 9 9 9 9 9 9 9 8 8 8 8 8 8 8 7 7 7 7 6 4 4 7 5 3 5 5 7 7 7 7 7 7
11 12 13 13 12 12 11 10 9 9 9 9 8 9 8 8 8 7 7 6 6 6 7 7 6 6 6 6 5 4 3 6 7 2 3 4 4 5 5 5 5 4 4
10 11 12 12 11 11 11 10 9 9 9 8 8 8 8 7 7 6 6 6 5 5 5 5 5 4 4 4 3 3 4 7 5 2 2 4 4 4 3 3 2 2 2
10 11 11 11 10 10 9 9 8 8 8 8 8 7 7 7 6 5 5 5 4 4 4 3 3 3 2 2 2 2 4 7 6 4 1 3 4 3 1 0 0 0 0
9 10 10 8 9 9 9 8 8 7 7 7 7 7 6 6 5 5 4 4 4 4 4 3 2 2 1 0 1 1 3 6 5 3 1 2 3 1 1 2 3 3 3
8 8 9 9 8 7 7 8 8 7 7 6 7 6 6 6 5 5 5 5 5 4 4 4 3 2 2 3 2 3 4 6 5 4 1 3 4 2 3 4 5 5 5
6 6 7 8 8 8 8 9 8 7 7 7 6 7 6 4 5 5 6 6 6 5 4 5 5 4 4 5 6 6 5 4 5 3 1 4 5 4 6 7 7 7 8
8 7 6 7 7 7 7 7 6 6 6 6 5 6 5 5 4 5 8 8 7 6 6 6 6 5 5 4 6 7 3 6 4 3 3 7 6 7 8 9 9 9 10
9 8 7 7 7 6 4 5 4 4 5 6 7 7 5 4 3 3 3 5 5 6 5 6 5 4 5 4 3 4 5 4 3 3 3 8 8 9 11 11 12 12 12
9 10 8 7 7 6 5 5 4 3 4 4 5 6 5 3 3 3 3 4 4 4 4 4 4 5 6 5 4 4 4 3 3 3 3 9 10 11 13 14 14 14 14
9 9 9 8 8 7 6 5 5 4 4 5 4 5 5 4 4 4 3 3 4 4 4 4 4 5 5 5 5 5 5 5 5 5 3 9 12 13 15 16 16 16 15
9 9 9 9 9 8 7 6 5 4 5 5 5 6 6 5 4 4 4 4 4 4 4 4 5 4 4 4 5 5 6 6 6 6 5 6 12 14 16 17 17 17 17
8 9 9 10 9 9 8 8 5 5 5 5 5 6 7 6 5 4 4 4 4 4 4 3 4 3 3 4 5 6 5 6 6 7 6 5 6 11 15 17 18 17 17
8 8 9 8 9 9 8 7 6 6 6 5 5 5 7 8 7 5 4 4 4 4 4 4 3 3 4 4 4 4 4 5 7 7 6 6 5 5 9 15 16 17 17
8 8 9 9 10 9 8 7 6 6 6 5 5 5 6 7 8 6 5 4 4 4 4 4 4 3 4 4 4 4 4 5 6 6 7 7 7 6 5 8 13 14 16
7 7 8 8 9 8 7 6 5 5 5 5 5 6 7 7 8 7 5 6 5 4 4 4 4 4 3 3 4 5 5 6 6 6 7 6 6 7 6 6 5 8 14
7 7 7 8 8 7 6 7 6 7 6 5 5 6 8 7 8 8 6 6 6 5 6 6 4 5 4 3 2 4 5 8 8 6 6 5 6 6 5 6 5 4 5
8 7 7 7 8 8 7 7 5 5 4 5 5 6 7 7 7 7 8 6 6 5 6 6 5 4 4 4 3 2 4 4 4 6 5 5 5 4 5 6 6 6 5
7 7 7 7 7 7 7 5 4 4 3 4 6 6 7 8 7 7 7 7 6 6 6 7 6 6 5 4 5 4 3 4 3 3 4 4 4 4 4 4 5 5 5
6 6 6 6 6 6 6 6 8 7 8 7 6 5 5 7 8 8 7 7 7 6 6 6 6 6 5 4 4 5 5 3 2 4 3 3 4 4 5 4 4 5 5
5 5 4 4 4 5 6 7 8 7 7 5 4 5 6 6 7 7 7 7 7 6 6 5 5 6 5 5 4 3 5 5 5 5 6 4 3 3 4 4 4 4 4
4 4 4 4 4 4 5 6 7 8 7 6 6 5 5 4 4 6 6 6 6 6 6 6 5 6 5 6 5 4 3 3 4 5 6 5 5 4 4 4 4 3 3
Wind_Direction
122 130 138 137 134 130 126 123 121 118 115 114 111 107 102 98 95 94 95 92 88 85 82 79 79 77 75 73 72 72 72 72 73 74 73 71 68 66 63 64 71 65 70
125 132 139 138 136 131 128 126 124 123 121 118 115 110 106 102 100 97 96 93 90 87 84 82 81 80 78 76 74 73 72 72 71 74 81 77 71 67 65 65 73 75 73
125 133 141 137 137 132 130 130 128 127 125 120 115 109 107 105 103 99 97 95 93 90 87 85 84 82 80 78 75 72 69 59 30 5 41 98 79 69 70 72 74 73 73
129 140 143 138 139 136 134 133 132 130 126 121 117 112 109 108 107 104 101 99 97 94 92 89 87 85 82 78 74 71 62 26 348 337 43 82 78 72 71 73 72 69 70
131 135 134 141 142 141 139 138 138 136 133 128 124 120 114 110 110 109 106 104 102 101 97 92 89 88 83 79 74 67 46 351 330 332 52 83 81 76 72 73 73 70 65
130 128 138 144 145 146 146 145 145 146 143 138 133 128 122 117 113 113 111 110 108 106 102 95 89 88 81 78 73 55 8 332 324 326 64 82 83 80 77 79 83 77 69
132 130 143 145 147 149 152 153 153 153 151 148 144 137 132 129 126 126 125 120 118 114 108 102 92 90 79 76 69 36 348 329 315 341 64 85 87 84 75 88 93 79 69
133 133 144 146 150 154 157 159 160 158 157 155 154 150 146 145 142 143 144 140 135 130 126 124 113 102 86 73 51 3 328 319 324 333 73 100 100 105 100 139 209 241 228
133 136 145 155 158 160 162 163 163 162 162 161 160 158 152 151 154 152 154 161 163 158 156 159 156 152 160 228 301 308 300 303 305 298 324 110 125 149 241 251 255 253 247
137 146 155 163 167 168 169 170 167 167 167 165 163 158 156 159 166 169 173 178 184 182 183 184 187 207 236 248 247 248 266 288 274 269 240 144 150 212 258 263 254 255 250
151 160 164 166 171 172 175 174 171 173 176 171 167 169 170 186 187 185 193 180 186 190 195 202 205 213 231 240 236 233 245 252 263 263 190 156 176 232 260 262 257 257 249
173 177 175 173 174 175 178 163 177 182 179 189 186 179 193 210 198 184 174 177 182 191 204 216 218 220 228 235 229 224 236 245 253 256 200 184 203 239 256 260 257 257 252
182 182 182 180 177 176 170 165 180 183 178 194 196 186 193 202 188 173 162 172 189 202 212 216 215 220 223 227 213 209 230 244 251 252 211 200 214 239 254 257 258 257 254
182 185 185 183 179 181 176 177 182 181 180 188 194 191 187 189 196 189 185 183 189 195 204 206 206 218 225 229 230 235 246 247 247 248 227 216 221 239 253 257 257 257 257
186 186 186 185 186 184 183 186 188 189 187 191 189 193 194 189 195 201 197 198 199 197 196 204 216 224 224 228 231 232 239 246 249 248 240 227 227 237 250 256 258 258 257
189 189 187 189 192 187 188 191 193 193 191 193 189 193 199 201 199 200 203 203 208 207 204 202 213 224 223 224 235 239 239 242 245 245 241 236 234 237 246 254 257 259 259
191 190 189 190 192 193 194 197 196 197 195 197 196 196 198 204 208 205 206 207 209 211 212 212 223 227 229 229 235 239 239 238 242 245 244 240 236 236 241 249 254 257 259
189 192 192 187 190 196 198 198 199 201 201 199 197 197 201 204 208 212 211 213 209 206 204 209 218 225 231 234 240 245 244 242 243 245 244 241 238 238 236 241 247 252 257
189 190 191 188 190 195 198 199 202 202 205 202 198 201 202 204 207 209 212 215 212 208 207 210 214 217 231 239 245 251 252 251 249 248 245 243 240 238 236 237 237 243 251
187 188 191 190 191 191 191 198 203 207 209 207 204 204 203 204 204 206 212 216 213 211 211 210 217 220 227 240 261 266 260 255 250 246 246 245 241 239 237 238 236 239 242
182 187 191 193 194 189 189 193 200 208 208 209 210 208 208 205 200 203 209 212 211 213 213 212 211 224 227 218 253 275 265 250 243 240 236 238 241 239 235 237 235 236 241
186 189 192 196 196 195 196 194 195 194 203 210 209 213 213 209 206 205 208 210 209 212 214 213 207 212 216 195 202 253 290 292 254 235 229 231 240 239 239 237 233 235 237
188 190 193 196 198 198 192 181 180 188 201 210 213 215 214 213 213 209 209 211 211 209 214 212 208 209 219 211 201 208 241 264 303 273 233 226 230 236 242 243 241 242 238
189 183 185 191 198 199 191 188 189 196 207 212 208 207 200 206 212 213 214 214 215 213 215 214 210 210 213 221 215 219 231 245 273 297 289 255 245 243 244 245 246 246 241
172 170 175 184 198 202 198 196 198 206 212 206 197 197 200 202 206 210 211 213 217 218 218 212 209 211 212 218 217 214 234 245 241 255 278 284 278 257 247 245 249 249 246
159 159 169 183 200 206 203 198 199 205 207 201 201 200 199 193 197 203 207 212 215 216 218 217 214 215 217 219 225 220 213 224 230 238 257 271 274 268 257 252 253 255 251